| time (UTC) | temp F | wind direction | speed MPH | gust MPH | rain 1hr in | rain 24hr in | rain mn in | humidity % | barometer mb |
| 20260831231010 | 72 | 286 | 0.0 | 0.0 | 0.00 | 0.00 | 0.00 | 63 | 1018.7 |
| 20260831230508 | 72 | 286 | 0.0 | 0.0 | 0.00 | 0.00 | 0.00 | 63 | 1018.6 |
| 20260831230023 | 72 | 286 | 0.0 | 0.0 | 0.00 | 0.00 | 0.00 | 63 | 1018.6 |
| 20260831225511 | 73 | 286 | 0.0 | 0.0 | 0.00 | 0.00 | 0.00 | 63 | 1018.7 |
| 20260831225011 | 73 | 286 | 0.0 | 0.0 | 0.00 | 0.00 | 0.00 | 62 | 1018.8 |
| 20260831224506 | 73 | 286 | 0.0 | 0.0 | 0.00 | 0.00 | 0.00 | 61 | 1018.8 |
| 20260831224004 | 73 | 286 | 0.0 | 0.0 | 0.00 | 0.00 | 0.00 | 61 | 1018.8 |
| 20260831223506 | 73 | 286 | 0.0 | 0.0 | 0.00 | 0.00 | 0.00 | 61 | 1018.8 |
| 20260831223017 | 74 | 286 | 0.0 | 0.0 | 0.00 | 0.00 | 0.00 | 60 | 1018.7 |
| 20260831222502 | 74 | 286 | 0.0 | 0.0 | 0.00 | 0.00 | 0.00 | 60 | 1018.7 |
| 20260831222007 | 74 | 286 | 0.0 | 0.0 | 0.00 | 0.00 | 0.00 | 60 | 1018.6 |
| 20260831221516 | 74 | 286 | 0.0 | 0.0 | 0.00 | 0.00 | 0.00 | 58 | 1018.7 |
| 20260831221008 | 75 | 286 | 0.0 | 0.0 | 0.00 | 0.00 | 0.00 | 54 | 1018.7 |
| 20260831220508 | 75 | 286 | 0.0 | 0.0 | 0.00 | 0.00 | 0.00 | 53 | 1018.7 |
| 20260831220023 | 76 | 285 | 0.0 | 0.0 | 0.00 | 0.00 | 0.00 | 51 | 1018.6 |
| 20260831215514 | 76 | 285 | 0.0 | 1.0 | 0.00 | 0.00 | 0.00 | 51 | 1018.5 |
| 20260831215016 | 76 | 285 | 0.0 | 3.0 | 0.00 | 0.00 | 0.00 | 50 | 1018.6 |
| 20260831214526 | 76 | 285 | 1.0 | 3.0 | 0.00 | 0.00 | 0.00 | 48 | 1018.6 |
| 20260831214011 | 76 | 165 | 0.0 | 0.0 | 0.00 | 0.00 | 0.00 | 48 | 1018.6 |
| 20260831213513 | 76 | 131 | 0.0 | 2.0 | 0.00 | 0.00 | 0.00 | 50 | 1018.6 |
| 20260831213008 | 76 | 128 | 0.0 | 2.0 | 0.00 | 0.00 | 0.00 | 49 | 1018.6 |
| 20260831212504 | 77 | 92 | 0.0 | 2.0 | 0.00 | 0.00 | 0.00 | 49 | 1018.6 |
| 20260831212003 | 77 | 79 | 0.0 | 3.0 | 0.00 | 0.00 | 0.00 | 47 | 1018.5 |
| 20260831211513 | 77 | 79 | 0.0 | 3.0 | 0.00 | 0.00 | 0.00 | 48 | 1018.6 |
| 20260831211006 | 77 | 106 | 0.0 | 3.0 | 0.00 | 0.00 | 0.00 | 49 | 1018.7 |
| 20260831210508 | 78 | 106 | 0.0 | 4.0 | 0.00 | 0.00 | 0.00 | 47 | 1018.7 |
| 20260831210020 | 78 | 352 | 0.0 | 4.0 | 0.00 | 0.00 | 0.00 | 48 | 1018.7 |
| 20260831205509 | 78 | 278 | 0.0 | 4.0 | 0.00 | 0.00 | 0.00 | 43 | 1018.7 |
| 20260831205013 | 78 | 283 | 2.0 | 4.0 | 0.00 | 0.00 | 0.00 | 45 | 1018.7 |
| 20260831204523 | 78 | 284 | 1.0 | 5.0 | 0.00 | 0.00 | 0.00 | 44 | 1018.7 |
| 20260831204012 | 78 | 280 | 2.0 | 6.0 | 0.00 | 0.00 | 0.00 | 45 | 1018.8 |
| 20260831203512 | 78 | 288 | 1.0 | 6.0 | 0.00 | 0.00 | 0.00 | 45 | 1018.9 |
| 20260831203026 | 78 | 278 | 2.0 | 6.0 | 0.00 | 0.00 | 0.00 | 46 | 1018.9 |
| 20260831202511 | 78 | 299 | 1.0 | 3.0 | 0.00 | 0.00 | 0.00 | 45 | 1018.8 |
| 20260831202015 | 78 | 284 | 0.0 | 3.0 | 0.00 | 0.00 | 0.00 | 44 | 1018.9 |
| 20260831201510 | 78 | 94 | 0.0 | 5.0 | 0.00 | 0.00 | 0.00 | 45 | 1018.9 |
| 20260831201004 | 78 | 286 | 0.0 | 5.0 | 0.00 | 0.00 | 0.00 | 46 | 1018.9 |
| 20260831200504 | 78 | 285 | 0.0 | 5.0 | 0.00 | 0.00 | 0.00 | 47 | 1018.8 |
| 20260831200020 | 78 | 284 | 1.0 | 5.0 | 0.00 | 0.00 | 0.00 | 45 | 1018.9 |
| 20260831195507 | 78 | 288 | 1.0 | 4.0 | 0.00 | 0.00 | 0.00 | 48 | 1018.9 |
| 20260831195010 | 78 | 1 | 0.0 | 6.0 | 0.00 | 0.00 | 0.00 | 50 | 1018.9 |
| 20260831194531 | 78 | 271 | 2.0 | 7.0 | 0.00 | 0.00 | 0.00 | 49 | 1018.9 |
| 20260831194011 | 77 | 299 | 3.0 | 7.0 | 0.00 | 0.00 | 0.00 | 49 | 1019.1 |
| 20260831193515 | 77 | 298 | 0.0 | 6.0 | 0.00 | 0.00 | 0.00 | 49 | 1019.1 |
| 20260831193028 | 77 | 136 | 2.0 | 7.0 | 0.00 | 0.00 | 0.00 | 48 | 1019.1 |
| 20260831192513 | 77 | 211 | 2.0 | 7.0 | 0.00 | 0.00 | 0.00 | 49 | 1019.1 |
| 20260831192013 | 77 | 200 | 0.0 | 3.0 | 0.00 | 0.00 | 0.00 | 49 | 1019.1 |
| 20260831191527 | 77 | 359 | 0.0 | 4.0 | 0.00 | 0.00 | 0.00 | 49 | 1019.1 |
| 20260831191012 | 77 | 41 | 1.0 | 5.0 | 0.00 | 0.00 | 0.00 | 50 | 1019.1 |
| 20260831190514 | 77 | 285 | 1.0 | 5.0 | 0.00 | 0.00 | 0.00 | 48 | 1019.4 |
| 20260831190012 | 77 | 278 | 2.0 | 7.0 | 0.00 | 0.00 | 0.00 | 47 | 1019.4 |
| 20260831185508 | 77 | 286 | 4.0 | 7.0 | 0.00 | 0.00 | 0.00 | 47 | 1019.5 |
| 20260831185006 | 77 | 294 | 1.0 | 5.0 | 0.00 | 0.00 | 0.00 | 47 | 1019.5 |
| 20260831184518 | 77 | 287 | 1.0 | 6.0 | 0.00 | 0.00 | 0.00 | 48 | 1019.6 |
| 20260831184007 | 77 | 270 | 3.0 | 7.0 | 0.00 | 0.00 | 0.00 | 48 | 1019.6 |
| 20260831183512 | 77 | 276 | 3.0 | 7.0 | 0.00 | 0.00 | 0.00 | 47 | 1019.7 |
| 20260831183025 | 77 | 290 | 2.0 | 7.0 | 0.00 | 0.00 | 0.00 | 48 | 1019.7 |
| 20260831182514 | 77 | 197 | 1.0 | 6.0 | 0.00 | 0.00 | 0.00 | 47 | 1019.8 |
| 20260831182013 | 77 | 296 | 2.0 | 6.0 | 0.00 | 0.00 | 0.00 | 46 | 1019.9 |
| 20260831181535 | 77 | 279 | 0.0 | 5.0 | 0.00 | 0.00 | 0.00 | 46 | 1019.9 |
| 20260831181013 | 77 | 132 | 1.0 | 7.0 | 0.00 | 0.00 | 0.00 | 46 | 1019.8 |
| 20260831180516 | 77 | 285 | 1.0 | 8.0 | 0.00 | 0.00 | 0.00 | 45 | 1019.8 |
| 20260831180027 | 77 | 291 | 3.0 | 8.0 | 0.00 | 0.00 | 0.00 | 44 | 1019.8 |
| 20260831175505 | 77 | 148 | 1.0 | 6.0 | 0.00 | 0.00 | 0.00 | 45 | 1019.9 |
| 20260831175005 | 77 | 297 | 3.0 | 6.0 | 0.00 | 0.00 | 0.00 | 46 | 1020.1 |
| 20260831174530 | 77 | 290 | 3.0 | 6.0 | 0.00 | 0.00 | 0.00 | 49 | 1020.1 |
| 20260831174009 | 77 | 216 | 1.0 | 5.0 | 0.00 | 0.00 | 0.00 | 47 | 1020.1 |
| 20260831173513 | 77 | 280 | 2.0 | 4.0 | 0.00 | 0.00 | 0.00 | 49 | 1020.3 |
| 20260831173018 | 77 | 182 | 1.0 | 4.0 | 0.00 | 0.00 | 0.00 | 48 | 1020.3 |
| 20260831172502 | 77 | 309 | 1.0 | 4.0 | 0.00 | 0.00 | 0.00 | 47 | 1020.4 |
| 20260831172003 | 77 | 105 | 0.0 | 6.0 | 0.00 | 0.00 | 0.00 | 48 | 1020.4 |
| 20260831171504 | 78 | 153 | 0.0 | 6.0 | 0.00 | 0.00 | 0.00 | 47 | 1020.4 |
| 20260831171004 | 78 | 288 | 1.0 | 5.0 | 0.00 | 0.00 | 0.00 | 47 | 1020.4 |
| 20260831170504 | 78 | 34 | 1.0 | 3.0 | 0.00 | 0.00 | 0.00 | 45 | 1020.5 |
| 20260831170008 | 78 | 325 | 0.0 | 3.0 | 0.00 | 0.00 | 0.00 | 42 | 1020.5 |
| 20260831165504 | 78 | 49 | 1.0 | 3.0 | 0.00 | 0.00 | 0.00 | 41 | 1020.6 |
| 20260831165003 | 78 | 83 | 1.0 | 3.0 | 0.00 | 0.00 | 0.00 | 44 | 1020.5 |
| 20260831164511 | 78 | 98 | 0.0 | 5.0 | 0.00 | 0.00 | 0.00 | 42 | 1020.5 |
| 20260831164005 | 77 | 302 | 0.0 | 5.0 | 0.00 | 0.00 | 0.00 | 43 | 1020.7 |
| 20260831163506 | 77 | 264 | 0.0 | 3.0 | 0.00 | 0.00 | 0.00 | 45 | 1020.8 |
| 20260831163014 | 77 | 184 | 0.0 | 5.0 | 0.00 | 0.00 | 0.00 | 46 | 1020.7 |
| 20260831162509 | 77 | 209 | 0.0 | 5.0 | 0.00 | 0.00 | 0.00 | 45 | 1020.8 |
| 20260831162009 | 77 | 269 | 1.0 | 5.0 | 0.00 | 0.00 | 0.00 | 45 | 1020.8 |
| 20260831161524 | 77 | 302 | 1.0 | 5.0 | 0.00 | 0.00 | 0.00 | 47 | 1020.8 |
| 20260831161002 | 77 | 293 | 4.0 | 5.0 | 0.00 | 0.00 | 0.00 | 46 | 1020.9 |
| 20260831160502 | 76 | 225 | 1.0 | 4.0 | 0.00 | 0.00 | 0.00 | 46 | 1020.9 |
| 20260831160006 | 77 | 134 | 1.0 | 4.0 | 0.00 | 0.00 | 0.00 | 45 | 1021.0 |
| 20260831155504 | 76 | 148 | 0.0 | 3.0 | 0.00 | 0.00 | 0.00 | 48 | 1021.1 |
| 20260831155004 | 76 | 45 | 1.0 | 3.0 | 0.00 | 0.00 | 0.00 | 50 | 1021.1 |
| 20260831154529 | 76 | 338 | 0.0 | 3.0 | 0.00 | 0.00 | 0.00 | 49 | 1021.1 |
| 20260831154004 | 76 | 112 | 1.0 | 5.0 | 0.00 | 0.00 | 0.00 | 46 | 1021.1 |
| 20260831153503 | 76 | 89 | 2.0 | 5.0 | 0.00 | 0.00 | 0.00 | 49 | 1021.3 |
| 20260831153015 | 76 | 44 | 0.0 | 4.0 | 0.00 | 0.00 | 0.00 | 51 | 1021.4 |
| 20260831152506 | 76 | 93 | 0.0 | 3.0 | 0.00 | 0.00 | 0.00 | 49 | 1021.3 |
| 20260831152007 | 76 | 45 | 0.0 | 4.0 | 0.00 | 0.00 | 0.00 | 49 | 1021.3 |
| 20260831151519 | 75 | 257 | 1.0 | 5.0 | 0.00 | 0.00 | 0.00 | 51 | 1021.3 |
| 20260831151012 | 75 | 72 | 0.0 | 5.0 | 0.00 | 0.00 | 0.00 | 54 | 1021.4 |
| 20260831150510 | 75 | 177 | 1.0 | 4.0 | 0.00 | 0.00 | 0.00 | 52 | 1021.4 |
| 20260831150026 | 75 | 130 | 1.0 | 3.0 | 0.00 | 0.00 | 0.00 | 54 | 1021.4 |
| 20260831145507 | 75 | 322 | 0.0 | 4.0 | 0.00 | 0.00 | 0.00 | 55 | 1021.4 |
| 20260831145005 | 74 | 332 | 1.0 | 4.0 | 0.00 | 0.00 | 0.00 | 55 | 1021.5 |
| 20260831144507 | 74 | 115 | 1.0 | 4.0 | 0.00 | 0.00 | 0.00 | 55 | 1021.5 |
| 20260831144004 | 74 | 80 | 1.0 | 6.0 | 0.00 | 0.00 | 0.00 | 56 | 1021.6 |
| 20260831143504 | 74 | 350 | 1.0 | 6.0 | 0.00 | 0.00 | 0.00 | 56 | 1021.6 |
| 20260831143010 | 74 | 176 | 1.0 | 3.0 | 0.00 | 0.00 | 0.00 | 57 | 1021.6 |
| 20260831142504 | 73 | 50 | 1.0 | 2.0 | 0.00 | 0.00 | 0.00 | 59 | 1021.7 |
| 20260831142007 | 73 | 38 | 0.0 | 4.0 | 0.00 | 0.00 | 0.00 | 60 | 1021.6 |
| 20260831141517 | 72 | 31 | 0.0 | 4.0 | 0.00 | 0.00 | 0.00 | 61 | 1021.5 |
| 20260831141009 | 72 | 84 | 0.0 | 3.0 | 0.00 | 0.00 | 0.00 | 59 | 1021.5 |
| 20260831140508 | 72 | 276 | 1.0 | 3.0 | 0.00 | 0.00 | 0.00 | 58 | 1021.4 |
| 20260831140024 | 71 | 295 | 1.0 | 4.0 | 0.00 | 0.00 | 0.00 | 61 | 1021.4 |
| 20260831135510 | 71 | 95 | 1.0 | 4.0 | 0.00 | 0.00 | 0.00 | 62 | 1021.3 |
| 20260831135012 | 71 | 65 | 1.0 | 4.0 | 0.00 | 0.00 | 0.00 | 61 | 1021.3 |
| 20260831134527 | 70 | 17 | 1.0 | 3.0 | 0.00 | 0.00 | 0.00 | 62 | 1021.4 |
| 20260831134004 | 70 | 1 | 0.0 | 3.0 | 0.00 | 0.00 | 0.00 | 63 | 1021.4 |
| 20260831133504 | 70 | 30 | 0.0 | 3.0 | 0.00 | 0.00 | 0.00 | 64 | 1021.4 |
| 20260831133008 | 70 | 83 | 0.0 | 3.0 | 0.00 | 0.00 | 0.00 | 67 | 1021.4 |
| 20260831132504 | 69 | 359 | 0.0 | 0.0 | 0.00 | 0.00 | 0.00 | 70 | 1021.3 |
| 20260831132004 | 68 | 13 | 0.0 | 4.0 | 0.00 | 0.00 | 0.00 | 70 | 1021.3 |
| 20260831131517 | 68 | 75 | 0.0 | 4.0 | 0.00 | 0.00 | 0.00 | 70 | 1021.3 |
| 20260831131011 | 67 | 80 | 1.0 | 4.0 | 0.00 | 0.00 | 0.00 | 70 | 1021.3 |
| 20260831130508 | 67 | 40 | 1.0 | 3.0 | 0.00 | 0.00 | 0.00 | 72 | 1021.5 |
| 20260831130019 | 67 | 65 | 0.0 | 0.0 | 0.00 | 0.00 | 0.00 | 74 | 1021.5 |
| 20260831125511 | 66 | 27 | 0.0 | 0.0 | 0.00 | 0.00 | 0.00 | 75 | 1021.5 |
| 20260831125010 | 65 | 28 | 0.0 | 0.0 | 0.00 | 0.00 | 0.00 | 77 | 1021.4 |
| 20260831124524 | 65 | 158 | 0.0 | 0.0 | 0.00 | 0.00 | 0.00 | 77 | 1021.4 |
| 20260831124013 | 64 | 145 | 0.0 | 0.0 | 0.00 | 0.00 | 0.00 | 74 | 1021.4 |
| 20260831123516 | 64 | 142 | 0.0 | 0.0 | 0.00 | 0.00 | 0.00 | 76 | 1021.5 |
| 20260831123034 | 64 | 56 | 0.0 | 0.0 | 0.00 | 0.00 | 0.00 | 77 | 1021.5 |
| 20260831122515 | 63 | 56 | 0.0 | 0.0 | 0.00 | 0.00 | 0.00 | 80 | 1021.4 |
| 20260831122004 | 62 | 56 | 0.0 | 0.0 | 0.00 | 0.00 | 0.00 | 80 | 1021.5 |
| 20260831121511 | 61 | 55 | 0.0 | 0.0 | 0.00 | 0.00 | 0.00 | 81 | 1021.3 |
| 20260831121012 | 60 | 52 | 0.0 | 0.0 | 0.00 | 0.00 | 0.00 | 84 | 1021.3 |
| 20260831120507 | 59 | 52 | 0.0 | 0.0 | 0.00 | 0.00 | 0.00 | 84 | 1021.2 |
| 20260831120015 | 59 | 52 | 0.0 | 0.0 | 0.00 | 0.00 | 0.00 | 87 | 1021.2 |
| 20260831115509 | 58 | 52 | 0.0 | 0.0 | 0.00 | 0.00 | 0.00 | 90 | 1021.2 |
| 20260831115011 | 57 | 44 | 0.0 | 0.0 | 0.00 | 0.00 | 0.00 | 93 | 1021.1 |
| 20260831114543 | 56 | 44 | 0.0 | 0.0 | 0.00 | 0.00 | 0.00 | 94 | 1021.1 |
| 20260831114012 | 55 | 44 | 0.0 | 0.0 | 0.00 | 0.00 | 0.00 | 94 | 1021.1 |
| 20260831113512 | 54 | 44 | 0.0 | 0.0 | 0.00 | 0.00 | 0.00 | 93 | 1021.0 |
| 20260831113027 | 54 | 44 | 0.0 | 0.0 | 0.00 | 0.00 | 0.00 | 92 | 1021.0 |
| 20260831112516 | 54 | 44 | 0.0 | 0.0 | 0.00 | 0.00 | 0.00 | 92 | 1020.9 |
| 20260831112013 | 54 | 44 | 0.0 | 0.0 | 0.00 | 0.00 | 0.00 | 92 | 1020.9 |
| 20260831111529 | 54 | 44 | 0.0 | 0.0 | 0.00 | 0.00 | 0.00 | 92 | 1020.9 |
| 20260831111014 | 54 | 44 | 0.0 | 0.0 | 0.00 | 0.00 | 0.00 | 92 | 1020.9 |
| 20260831110504 | 54 | 44 | 0.0 | 0.0 | 0.00 | 0.00 | 0.00 | 92 | 1020.9 |
| 20260831110018 | 54 | 44 | 0.0 | 0.0 | 0.00 | 0.00 | 0.00 | 92 | 1020.8 |
| 20260831105509 | 54 | 44 | 0.0 | 0.0 | 0.00 | 0.00 | 0.00 | 92 | 1020.8 |
| 20260831105010 | 54 | 44 | 0.0 | 0.0 | 0.00 | 0.00 | 0.00 | 92 | 1020.7 |
| 20260831104528 | 54 | 44 | 0.0 | 0.0 | 0.00 | 0.00 | 0.00 | 92 | 1020.7 |
| 20260831104010 | 54 | 44 | 0.0 | 0.0 | 0.00 | 0.00 | 0.00 | 91 | 1020.7 |
| 20260831103514 | 54 | 44 | 0.0 | 0.0 | 0.00 | 0.00 | 0.00 | 91 | 1020.6 |
| 20260831103023 | 54 | 44 | 0.0 | 0.0 | 0.00 | 0.00 | 0.00 | 91 | 1020.5 |
| 20260831102513 | 54 | 44 | 0.0 | 0.0 | 0.00 | 0.00 | 0.00 | 92 | 1020.5 |
| 20260831102013 | 54 | 44 | 0.0 | 0.0 | 0.00 | 0.00 | 0.00 | 92 | 1020.6 |
| 20260831101530 | 54 | 44 | 0.0 | 0.0 | 0.00 | 0.00 | 0.00 | 92 | 1020.5 |
| 20260831101016 | 54 | 44 | 0.0 | 0.0 | 0.00 | 0.00 | 0.00 | 91 | 1020.4 |
| 20260831100514 | 54 | 44 | 0.0 | 0.0 | 0.00 | 0.00 | 0.00 | 91 | 1020.5 |
| 20260831100037 | 54 | 44 | 0.0 | 0.0 | 0.00 | 0.00 | 0.00 | 91 | 1020.5 |
| 20260831095521 | 54 | 44 | 0.0 | 0.0 | 0.00 | 0.00 | 0.00 | 91 | 1020.4 |
| 20260831095006 | 54 | 44 | 0.0 | 0.0 | 0.00 | 0.00 | 0.00 | 91 | 1020.2 |
| 20260831094516 | 54 | 44 | 0.0 | 0.0 | 0.00 | 0.00 | 0.00 | 91 | 1020.2 |
| 20260831094010 | 54 | 44 | 0.0 | 0.0 | 0.00 | 0.00 | 0.00 | 90 | 1020.2 |
| 20260831093512 | 55 | 44 | 0.0 | 0.0 | 0.00 | 0.00 | 0.00 | 90 | 1020.2 |
| 20260831093025 | 55 | 44 | 0.0 | 0.0 | 0.00 | 0.00 | 0.00 | 90 | 1020.1 |
| 20260831092512 | 55 | 44 | 0.0 | 0.0 | 0.00 | 0.00 | 0.00 | 90 | 1020.0 |
| 20260831092015 | 55 | 44 | 0.0 | 0.0 | 0.00 | 0.00 | 0.00 | 90 | 1020.0 |
| 20260831091527 | 55 | 44 | 0.0 | 0.0 | 0.00 | 0.00 | 0.00 | 90 | 1020.0 |
| 20260831091014 | 55 | 44 | 0.0 | 0.0 | 0.00 | 0.00 | 0.00 | 90 | 1020.0 |
| 20260831090513 | 56 | 44 | 0.0 | 0.0 | 0.00 | 0.00 | 0.00 | 90 | 1020.0 |
| 20260831090031 | 56 | 44 | 0.0 | 0.0 | 0.00 | 0.00 | 0.00 | 90 | 1020.0 |
| 20260831085517 | 56 | 44 | 0.0 | 0.0 | 0.00 | 0.00 | 0.00 | 90 | 1019.9 |
| 20260831085006 | 56 | 44 | 0.0 | 0.0 | 0.00 | 0.00 | 0.00 | 90 | 1019.9 |
| 20260831084509 | 56 | 44 | 0.0 | 0.0 | 0.00 | 0.00 | 0.00 | 90 | 1019.8 |
| 20260831084007 | 56 | 44 | 0.0 | 0.0 | 0.00 | 0.00 | 0.00 | 90 | 1019.7 |
| 20260831083507 | 56 | 44 | 0.0 | 0.0 | 0.00 | 0.00 | 0.00 | 89 | 1019.7 |
| 20260831083016 | 57 | 44 | 0.0 | 0.0 | 0.00 | 0.00 | 0.00 | 90 | 1019.7 |
| 20260831082510 | 57 | 44 | 0.0 | 0.0 | 0.00 | 0.00 | 0.00 | 90 | 1019.7 |
| 20260831082012 | 57 | 44 | 0.0 | 0.0 | 0.00 | 0.00 | 0.00 | 90 | 1019.6 |
| 20260831081505 | 57 | 44 | 0.0 | 0.0 | 0.00 | 0.00 | 0.00 | 90 | 1019.6 |
| 20260831081008 | 57 | 44 | 0.0 | 0.0 | 0.00 | 0.00 | 0.00 | 90 | 1019.6 |
| 20260831080502 | 57 | 44 | 0.0 | 0.0 | 0.00 | 0.00 | 0.00 | 90 | 1019.6 |
| 20260831080004 | 57 | 44 | 0.0 | 0.0 | 0.00 | 0.00 | 0.00 | 90 | 1019.6 |
| 20260831075508 | 57 | 44 | 0.0 | 0.0 | 0.00 | 0.00 | 0.00 | 90 | 1019.5 |
| 20260831075004 | 57 | 44 | 0.0 | 0.0 | 0.00 | 0.00 | 0.00 | 90 | 1019.4 |
| 20260831074508 | 57 | 44 | 0.0 | 0.0 | 0.00 | 0.00 | 0.00 | 90 | 1019.3 |
| 20260831074006 | 58 | 44 | 0.0 | 0.0 | 0.00 | 0.00 | 0.00 | 89 | 1019.3 |
| 20260831073504 | 58 | 44 | 0.0 | 0.0 | 0.00 | 0.00 | 0.00 | 89 | 1019.1 |
| 20260831073020 | 58 | 44 | 0.0 | 0.0 | 0.00 | 0.00 | 0.00 | 89 | 1019.1 |
| 20260831072510 | 58 | 44 | 0.0 | 0.0 | 0.00 | 0.00 | 0.00 | 90 | 1019.1 |
| 20260831072008 | 58 | 44 | 0.0 | 0.0 | 0.00 | 0.00 | 0.00 | 89 | 1019.1 |
| 20260831071520 | 58 | 44 | 0.0 | 0.0 | 0.00 | 0.00 | 0.00 | 89 | 1019.1 |
| 20260831071010 | 58 | 44 | 0.0 | 0.0 | 0.00 | 0.00 | 0.00 | 89 | 1019.1 |
| 20260831070512 | 59 | 44 | 0.0 | 0.0 | 0.00 | 0.00 | 0.00 | 89 | 1019.1 |
| 20260831070024 | 59 | 44 | 0.0 | 0.0 | 0.00 | 0.00 | 0.00 | 89 | 1018.9 |
| 20260831065503 | 59 | 44 | 0.0 | 0.0 | 0.00 | 0.00 | 0.00 | 89 | 1018.9 |
| 20260831065003 | 59 | 44 | 0.0 | 0.0 | 0.00 | 0.00 | 0.00 | 89 | 1018.9 |
| 20260831064511 | 59 | 44 | 0.0 | 0.0 | 0.00 | 0.00 | 0.00 | 89 | 1018.9 |
| 20260831064003 | 59 | 44 | 0.0 | 0.0 | 0.00 | 0.00 | 0.00 | 88 | 1018.9 |
| 20260831063503 | 59 | 44 | 0.0 | 0.0 | 0.00 | 0.00 | 0.00 | 88 | 1018.8 |
| 20260831063021 | 60 | 44 | 0.0 | 0.0 | 0.00 | 0.00 | 0.00 | 88 | 1018.7 |
| 20260831062510 | 60 | 47 | 0.0 | 0.0 | 0.00 | 0.00 | 0.00 | 88 | 1018.7 |
| 20260831062008 | 60 | 47 | 0.0 | 0.0 | 0.00 | 0.00 | 0.00 | 88 | 1018.7 |
| 20260831061516 | 60 | 47 | 0.0 | 0.0 | 0.00 | 0.00 | 0.00 | 88 | 1018.8 |
| 20260831061014 | 61 | 47 | 0.0 | 0.0 | 0.00 | 0.00 | 0.00 | 88 | 1018.8 |
| 20260831060510 | 61 | 47 | 0.0 | 0.0 | 0.00 | 0.00 | 0.00 | 88 | 1018.8 |
| 20260831060023 | 61 | 47 | 0.0 | 0.0 | 0.00 | 0.00 | 0.00 | 88 | 1018.7 |
| 20260831055512 | 61 | 129 | 0.0 | 0.0 | 0.00 | 0.00 | 0.00 | 88 | 1018.7 |
| 20260831055012 | 61 | 172 | 0.0 | 0.0 | 0.00 | 0.00 | 0.00 | 88 | 1018.8 |
| 20260831054528 | 61 | 172 | 0.0 | 0.0 | 0.00 | 0.00 | 0.00 | 87 | 1018.8 |
| 20260831054003 | 62 | 172 | 0.0 | 0.0 | 0.00 | 0.00 | 0.00 | 87 | 1018.8 |
| 20260831053504 | 62 | 172 | 0.0 | 0.0 | 0.00 | 0.00 | 0.00 | 87 | 1018.9 |
| 20260831053008 | 62 | 172 | 0.0 | 0.0 | 0.00 | 0.00 | 0.00 | 86 | 1018.8 |
| 20260831052505 | 62 | 162 | 0.0 | 0.0 | 0.00 | 0.00 | 0.00 | 86 | 1018.8 |
| 20260831052005 | 63 | 162 | 0.0 | 0.0 | 0.00 | 0.00 | 0.00 | 85 | 1018.8 |
| 20260831051511 | 63 | 162 | 0.0 | 0.0 | 0.00 | 0.00 | 0.00 | 85 | 1018.7 |
| 20260831051012 | 63 | 162 | 0.0 | 0.0 | 0.00 | 0.00 | 0.00 | 85 | 1018.5 |
| 20260831050508 | 63 | 162 | 0.0 | 0.0 | 0.00 | 0.00 | 0.00 | 85 | 1018.5 |
| 20260831050023 | 63 | 162 | 0.0 | 0.0 | 0.00 | 0.00 | 0.00 | 85 | 1018.5 |
| 20260831045512 | 64 | 163 | 0.0 | 0.0 | 0.00 | 0.00 | 0.00 | 85 | 1018.4 |
| 20260831045010 | 64 | 233 | 0.0 | 0.0 | 0.00 | 0.00 | 0.00 | 86 | 1018.5 |
| 20260831044526 | 64 | 298 | 0.0 | 0.0 | 0.00 | 0.00 | 0.00 | 86 | 1018.4 |
| 20260831044013 | 64 | 298 | 0.0 | 0.0 | 0.00 | 0.00 | 0.00 | 86 | 1018.3 |
| 20260831043513 | 64 | 298 | 0.0 | 0.0 | 0.00 | 0.00 | 0.00 | 86 | 1018.3 |
| 20260831043037 | 64 | 298 | 0.0 | 0.0 | 0.00 | 0.00 | 0.00 | 86 | 1018.3 |
| 20260831042516 | 65 | 298 | 0.0 | 1.0 | 0.00 | 0.00 | 0.00 | 86 | 1018.3 |
| 20260831042004 | 65 | 298 | 0.0 | 1.0 | 0.00 | 0.00 | 0.00 | 86 | 1018.4 |
| 20260831041511 | 65 | 298 | 0.0 | 0.0 | 0.00 | 0.00 | 0.00 | 87 | 1018.4 |
| 20260831041007 | 65 | 298 | 0.0 | 0.0 | 0.00 | 0.00 | 0.00 | 87 | 1018.4 |
| 20260831040507 | 65 | 298 | 0.0 | 0.0 | 0.00 | 0.00 | 0.00 | 87 | 1018.4 |
| 20260831040016 | 65 | 298 | 0.0 | 0.0 | 0.00 | 0.00 | 0.00 | 87 | 1018.4 |
| 20260831035510 | 65 | 298 | 0.0 | 2.0 | 0.00 | 0.00 | 0.00 | 87 | 1018.3 |
| 20260831035008 | 65 | 298 | 0.0 | 2.0 | 0.00 | 0.00 | 0.00 | 87 | 1018.4 |
| 20260831034524 | 65 | 291 | 0.0 | 0.0 | 0.00 | 0.00 | 0.00 | 86 | 1018.4 |
| 20260831034014 | 66 | 291 | 0.0 | 2.0 | 0.00 | 0.00 | 0.00 | 86 | 1018.3 |
| 20260831033518 | 66 | 291 | 0.0 | 2.0 | 0.00 | 0.00 | 0.00 | 86 | 1018.3 |
| 20260831033026 | 66 | 291 | 0.0 | 2.0 | 0.00 | 0.00 | 0.00 | 86 | 1018.2 |
| 20260831032518 | 66 | 291 | 0.0 | 2.0 | 0.00 | 0.00 | 0.00 | 86 | 1018.3 |
| 20260831032016 | 66 | 291 | 0.0 | 2.0 | 0.00 | 0.00 | 0.00 | 86 | 1018.4 |
| 20260831031534 | 66 | 291 | 0.0 | 2.0 | 0.00 | 0.00 | 0.00 | 85 | 1018.4 |
| 20260831031017 | 66 | 291 | 0.0 | 0.0 | 0.00 | 0.00 | 0.00 | 85 | 1018.5 |
| 20260831030503 | 67 | 291 | 0.0 | 0.0 | 0.00 | 0.00 | 0.00 | 85 | 1018.4 |
| 20260831030012 | 67 | 291 | 0.0 | 0.0 | 0.00 | 0.00 | 0.00 | 84 | 1018.3 |
| 20260831025508 | 67 | 291 | 0.0 | 2.0 | 0.00 | 0.00 | 0.00 | 84 | 1018.3 |
| 20260831025010 | 67 | 291 | 0.0 | 2.0 | 0.00 | 0.00 | 0.00 | 84 | 1018.2 |
| 20260831024523 | 68 | 291 | 0.0 | 0.0 | 0.00 | 0.00 | 0.00 | 83 | 1018.3 |
| 20260831024010 | 68 | 291 | 0.0 | 0.0 | 0.00 | 0.00 | 0.00 | 83 | 1018.4 |
| 20260831023511 | 68 | 291 | 0.0 | 0.0 | 0.00 | 0.00 | 0.00 | 82 | 1018.3 |
| 20260831023024 | 68 | 291 | 0.0 | 0.0 | 0.00 | 0.00 | 0.00 | 82 | 1018.3 |
| 20260831022512 | 68 | 291 | 0.0 | 1.0 | 0.00 | 0.00 | 0.00 | 82 | 1018.3 |
| 20260831022011 | 69 | 291 | 0.0 | 1.0 | 0.00 | 0.00 | 0.00 | 81 | 1018.3 |
| 20260831021531 | 69 | 291 | 0.0 | 1.0 | 0.00 | 0.00 | 0.00 | 81 | 1018.2 |
| 20260831021014 | 69 | 291 | 0.0 | 2.0 | 0.00 | 0.00 | 0.00 | 81 | 1018.2 |
| 20260831020516 | 69 | 291 | 0.0 | 2.0 | 0.00 | 0.00 | 0.00 | 80 | 1018.1 |
| 20260831020033 | 70 | 291 | 0.0 | 2.0 | 0.00 | 0.00 | 0.00 | 80 | 1018.1 |
| 20260831015519 | 70 | 291 | 0.0 | 0.0 | 0.00 | 0.00 | 0.00 | 79 | 1018.0 |
| 20260831015008 | 70 | 291 | 0.0 | 0.0 | 0.00 | 0.00 | 0.00 | 79 | 1018.0 |
| 20260831014514 | 70 | 291 | 0.0 | 3.0 | 0.00 | 0.00 | 0.00 | 78 | 1017.9 |
| 20260831014008 | 71 | 291 | 0.0 | 3.0 | 0.00 | 0.00 | 0.00 | 77 | 1018.0 |
| 20260831013508 | 71 | 258 | 1.0 | 3.0 | 0.00 | 0.00 | 0.00 | 75 | 1018.0 |
| 20260831013037 | 71 | 281 | 1.0 | 2.0 | 0.00 | 0.00 | 0.00 | 74 | 1018.0 |
| 20260831012511 | 71 | 274 | 0.0 | 2.0 | 0.00 | 0.00 | 0.00 | 74 | 1017.8 |
| 20260831012011 | 71 | 274 | 0.0 | 2.0 | 0.00 | 0.00 | 0.00 | 73 | 1017.6 |
| 20260831011524 | 71 | 274 | 0.0 | 2.0 | 0.00 | 0.00 | 0.00 | 74 | 1017.5 |
| 20260831011014 | 72 | 274 | 0.0 | 2.0 | 0.00 | 0.00 | 0.00 | 73 | 1017.4 |
| 20260831010515 | 72 | 268 | 0.0 | 2.0 | 0.00 | 0.00 | 0.00 | 72 | 1017.3 |
| 20260831010031 | 72 | 276 | 0.0 | 2.0 | 0.00 | 0.00 | 0.00 | 72 | 1017.2 |
| 20260831005516 | 72 | 279 | 0.0 | 4.0 | 0.00 | 0.00 | 0.00 | 72 | 1017.2 |
| 20260831005017 | 72 | 277 | 0.0 | 4.0 | 0.00 | 0.00 | 0.00 | 71 | 1017.1 |
| 20260831004533 | 72 | 284 | 2.0 | 5.0 | 0.00 | 0.00 | 0.00 | 71 | 1016.9 |
| 20260831004018 | 72 | 290 | 1.0 | 7.0 | 0.00 | 0.00 | 0.00 | 71 | 1016.8 |
| 20260831003512 | 72 | 328 | 2.0 | 7.0 | 0.00 | 0.00 | 0.00 | 71 | 1016.9 |
| 20260831003023 | 72 | 317 | 3.0 | 7.0 | 0.00 | 0.00 | 0.00 | 71 | 1016.8 |
| 20260831002511 | 72 | 282 | 2.0 | 7.0 | 0.00 | 0.00 | 0.00 | 71 | 1016.8 |
| 20260831002013 | 72 | 304 | 2.0 | 5.0 | 0.00 | 0.00 | 0.00 | 71 | 1016.6 |
| 20260831001528 | 72 | 295 | 2.0 | 5.0 | 0.00 | 0.00 | 0.00 | 71 | 1016.5 |
| 20260831001013 | 72 | 295 | 2.0 | 6.0 | 0.00 | 0.00 | 0.00 | 71 | 1016.4 |
| 20260831000512 | 72 | 316 | 2.0 | 7.0 | 0.00 | 0.00 | 0.00 | 70 | 1016.3 |
| 20260831000029 | 72 | 281 | 3.0 | 7.0 | 0.00 | 0.00 | 0.00 | 70 | 1016.3 |
| 20260830235515 | 72 | 283 | 3.0 | 5.0 | 0.00 | 0.00 | 0.00 | 70 | 1016.3 |
| 20260830235003 | 72 | 293 | 2.0 | 5.0 | 0.00 | 0.00 | 0.00 | 70 | 1016.2 |
| 20260830234507 | 72 | 278 | 2.0 | 7.0 | 0.00 | 0.00 | 0.00 | 69 | 1016.1 |
| 20260830234005 | 72 | 287 | 2.0 | 7.0 | 0.00 | 0.00 | 0.00 | 69 | 1016.1 |
| 20260830233508 | 72 | 269 | 3.0 | 6.0 | 0.00 | 0.00 | 0.00 | 69 | 1016.0 |
| 20260830233016 | 72 | 295 | 2.0 | 4.0 | 0.00 | 0.00 | 0.00 | 69 | 1016.0 |
| 20260830232507 | 73 | 293 | 2.0 | 6.0 | 0.00 | 0.00 | 0.00 | 68 | 1016.1 |
| 20260830232010 | 73 | 293 | 2.0 | 6.0 | 0.00 | 0.00 | 0.00 | 68 | 1016.2 |
| 20260830231522 | 73 | 289 | 2.0 | 4.0 | 0.00 | 0.00 | 0.00 | 68 | 1016.2 |